Weather in Starye Atagi

Russia / Chechen Republic     43°07′22″N   45°44′29″E
temp.,
°C
wind,
m/s
gust,
m/s
humid.,
%
clouds,
%
prec.,
mm/h
press.,
hPa
HPBL,
m
7 may, fri
fri700:00+9s2185100 0.0 101421
03:00+8sw117482 0.0 101412
06:00+10s2259100 0.0 101542
09:00+15n215494 0.0 1015512
12:00+18n3254100 0.0 10161004
15:00+19n345326 0.0 10161440
18:00+16nnw236537 0.0 1017187
21:00+11s227915 0.1 101923
8 may, sat
sat800:00+10s22825 0.0 102031
03:00+10s33781 0.0 101940
06:00+12sse23650 0.0 101860
09:00+19nne23445 0.0 1016850
12:00+22nne334262 0.0 10141212
15:00+22nne434734 0.0 10131143
18:00+16nnw127484 0.0 101369
21:00+13s218081 0.0 101320
9 may, sun
sun900:00+12s33662 0.0 101241
03:00+11s336138 0.0 101039
06:00+13ssw1262100 0.0 100938
09:00+18n2150100 0.0 1008363
12:00+21n335046 0.0 10081044
15:00+21n325299 0.0 10071468
18:00+12nw71195100 3.3 1013822
21:00+7wnw3893100 5.9 1020850
10 may, mon
mon1000:00+5wnw3893100 1.6 1022843
03:00+6s1288100 2.4 1023168
06:00+6ssw1487100 0.2 1023330
09:00+7sse2368100 1.1 10231030
12:00+10nnw135092 0.2 10211483
15:00+11nnw1252100 0.4 10201377
18:00+9ssw126660 0.2 1020296
21:00+6s2280100 0.2 102237
11 may, tue
tue1100:00+6nne1180100 0.0 102170
03:00+6se0187100 0.1 1021135
06:00+6wsw017968 0.1 1021185
09:00+9ne236595 0.1 10201113
12:00+14ne224972 0.0 10161340
15:00+13nne3356100 0.0 10161167
18:00+12nne226727 0.0 1017376
21:00+7ssw22916 0.0 101927